Regional Weather Roundup
Issued by NWS Little Rock, AR

Home | Current Version | Previous Version | Graphics & Text | Print | Product List | Glossary On
Versions: 1 2 3 4 5 6 7 8 9 10 11 12 13 14 15 16 17 18 19 20 21 22 23 24 25 26 27 28 29 30 31 32 33 34 35 36 37 38 39 40 41 42 43 44 45 46 47 48 49 50
000
ASUS44 KLZK 291405
RWRLZK

WEATHER ROUNDUP FOR ARKANSAS
NATIONAL WEATHER SERVICE LITTLE ROCK AR
800 AM CST THU JAN 29 2015

NOTE: "FAIR" INDICATES FEW OR NO CLOUDS BELOW 12,000 FEET WITH NO
SIGNIFICANT WEATHER AND/OR OBSTRUCTIONS TO VISIBILITY.

ARZ001-003-010-029-291500-
NORTHWEST ARKANSAS

CITY           SKY/WX    TMP DP  RH WIND       PRES   REMARKS
FAYETTEVILLE   PTCLDY    48  35  60 CALM      30.16R
FORT SMITH     PTCLDY    53  35  50 W6        30.16R
HARRISON       CLEAR     47  36  65 NW9       30.13R
BENTONVILLE    PTCLDY    46  34  61 N8        30.17R
ROGERS         PTCLDY    46  35  65 N7        30.17R
SILOAM SPGS    PTCLDY    46  30  53 NW9       30.19R
HIGHFILL       PTCLDY    47  35  63 N15       30.16R
SPRINGDALE     CLEAR     50  36  57 NW12      30.17R
$$

ARZ004-005-016-291500-
NORTH CENTRAL ARKANSAS

CITY           SKY/WX    TMP DP  RH WIND       PRES   REMARKS
BATESVILLE     CLEAR     54  43  66 NW5       30.05R
FLIPPIN        CLEAR     52  36  54 NW16      30.10R
MTN HOME       CLEAR     50  37  61 NW7       30.08R
$$

ARZ040-041-291500-
WEST CENTRAL ARKANSAS

CITY           SKY/WX    TMP DP  RH WIND       PRES   REMARKS
MENA           MOCLDY    57  41  54 W6        30.14R
MOUNT IDA      MOCLDY    56  42  59 NW5       30.08R
$$

ARZ009-017-025-026-028-291500-
NORTHEAST ARKANSAS

CITY           SKY/WX    TMP DP  RH WIND       PRES   REMARKS
CORNING        FAIR      46  43  87 W9        30.02R
JONESBORO      CLEAR     50  44  80 SW9       30.02R
NEWPORT        CLEAR     49  43  80 W3        30.05R
WALNUT RIDGE   CLEAR     48  39  71 W10       30.01R
BLYTHEVILLE    CLEAR     52  43  71 SW16G22   30.01R
$$

ARZ022-023-033-042-044-291500-
CENTRAL ARKANSAS

CITY           SKY/WX    TMP DP  RH WIND       PRES   REMARKS
LITTLE ROCK    CLOUDY    55  43  63 SW12      30.08R
N LITTLE ROCK  MOCLDY    54  47  77 SW6       30.08R
JACKSONVILLE   CLOUDY    48  42  80 SW3       30.07R
SEARCY         MOCLDY    48  42  80 SW3       30.07R
HOT SPRINGS    MOCLDY    52  45  77 NW3       30.10R
RUSSELLVILLE   CLEAR     49  41  74 N6        30.08R
CLINTON        FAIR      36  34  93 CALM      30.10R FOG
$$

ARZ036-291500-
EAST ARKANSAS

CITY           SKY/WX    TMP DP  RH WIND       PRES   REMARKS
WEST MEMPHIS   PTCLDY    52  44  74 S9        30.05R
$$

ARZ050-053-066-070-073-291500-
SOUTHWEST ARKANSAS

CITY           SKY/WX    TMP DP  RH WIND       PRES   REMARKS
ARKADELPHIA    FAIR      45  45 100 CALM      30.12R
CAMDEN         PTCLDY    46  43  87 CALM      30.13R
TEXARKANA      CLEAR     51  46  83 SW7       30.14R
EL DORADO      FAIR      54  50  86 S8        30.14R
DE QUEEN       PTCLDY    40  39  97 CALM      30.13R FOG
$$

ARZ056-057-069-291500-
SOUTHEAST ARKANSAS

CITY           SKY/WX    TMP DP  RH WIND       PRES   REMARKS
PINE BLUFF     CLOUDY    53  45  74 SW12      30.09R
STUTTGART      CLOUDY    54  45  71 SW10      30.08R
MONTICELLO     PTCLDY    54  47  77 SW10      30.12R

$$





USA.gov is the U.S. government's official web portal to all federal, state and local government web resources and services.